User: anonymous   Login
Location: Grossmotten
(48.5500°N, 15.3833°E)
Time: 20:22:27
(UTC+00:00)
Language:

METEOR-M - Orbit

View from above orbital plane
View from above orbital plane
View from above satellite
View from above satellite

Ground track
Ground track

The orbit data is extracted from the following two-line orbital elements,

1 35865U 09049A   20023.53756246 +.00000024 +00000-0 +29485-4 0  9992
2 35865 098.4266 016.8759 0001212 246.4774 113.6278 14.22224000537033
Epoch (UTC): 23 January 2020 12:54:05
Eccentricity: 0.0001212
inclination: 98.4266°
perigee height: 817 km
apogee height: 819 km
right ascension of ascending node: 16.8759°
argument of perigee: 246.4774°
revolutions per day: 14.22224000
mean anomaly at epoch: 113.6278°
orbit number at epoch: 53703

The dashed part of the orbit path shows where the satellite is in the earth's shadow,  

DLR